THORAD AGENA D DEB

Satellite information

Favourite Embed

Satellite Type and Status

DEBRISIN ORBIT

Key statistics

Satellite THORAD AGENA D DEB at a glance.

Uptime

20288

Days in orbit

Revolutions

≈ 13.8

Per day

Orbit

SSO

Sun Synchronous Orbit

Inclination

100.0

Latest

Satellite identification and parameters

Extended collection of information and parameters for THORAD AGENA D DEB.

Object identification

Identified? True

Debris? True

Object name: THORAD AGENA D DEB

International designator: 1970-025SD

Object number (NORAD): 42523

Object ID (CCSDS): 42523

Country: UNITED STATES OF AMERICA (US)

Current information (Y/N): Y

RCS size: SMALL

Orbital parameters

Period: 104.639 minutes

Inclination: 99.9674 deg

SMA: 7355.67 km

Apoapsis: 997.776 km

Periapsis: 957.293 km

RAAN: 39.5972 deg

Eccentricy: 0.00275181

Argument of periapsis: 152.7235 deg

Mean anomaly: 359.4737 deg

Mean motion: 13.76161581 rev/day

Mean motion (dot): 0.0000083 rev/day2

B* drag term: 0.00090041312 1/REarth

Two-line elements (TLE)

Creation date: Oct. 23, 2025, 2:46 a.m.

Reference frame: TEME

Reference center: EARTH

Epoch: Oct. 22, 2025, 6:41 p.m. UTC

TLE line 0: 0 THORAD AGENA D DEB

TLE line 1: 1 42523U 70025SD 25295.77915529 .00000830 00000-0 90041-3 0 9996

TLE line 2: 2 42523 99.9674 39.5972 0027518 152.7235 359.4737 13.76161581597687

Live tracking on map

Real-time ground track for satellite THORAD AGENA D DEB.

In-orbit conjunctions

A list of the most updated potential collisions computed for object THORAD AGENA D DEB.

Target Orbit TCA Probability of collision Miss distance Type
SL-19 R/B SSO 2025-10-23 16:14:50 0.0001646478 285.0 (m) ROCKET BODY
SL-8 R/B LEO 2025-01-01 02:08:33 0.0001875937 277.0 (m) ROCKET BODY
COSMOS 1736 FUEL CORE LEO 2024-12-19 00:59:34 0.0001762109 228.0 (m) PAYLOAD
COSMOS 1802 LEO 2024-10-07 15:44:38 0.0001246153 301.0 (m) PAYLOAD

Associated space launch

Meteorological research and development satellite

THORAD AGENA D DEB was lifted into orbit during the mission ‘Thorad SLV-2G Agena D | Nimbus 4’, on board a Thorad SLV-2G Agena D space rocket.

The launch took place on April 8, 1970, 8:17 a.m. from Space Launch Complex 2E.

For more information about the launch, click the button.

Launch to space Thorad SLV-2G Agena D | Nimbus 4
Thorad SLV-2G Agena D | Nimbus 4

Agency: N/A

Status: Launch Successful

Launch date: April 8, 1970, 8:17 a.m. UTC

Rocket: Thorad SLV-2G Agena D

Launch pad: Space Launch Complex 2E

Location: Vandenberg SFB, CA, USA

...

Latest news about this satellite

There are no fresh news available about this satellite. Check back as we update our databases every day.


Newsletter sign-up

Weekly statistics, charts and insights to help you stay on top of the space industry.